{"data":{"norad_id":66516,"intl_designator":"2025-265A","name":"STARLINK-35924","alt_names":[],"object_type":"PAYLOAD","status":"ACTIVE","operator":null,"country":"US","launch_date":"2025-11-19","launch_site_code":"AFETR","launch_vehicle":null,"mission":null,"orbit_class":"UNKNOWN","rcs_meters":null,"size_class":null,"mass_kg":null,"dimensions":null,"purposes":["comms"],"wikipedia_slug":null,"has_3d_model":false,"image_url":null,"decayed_at":null,"tle_current":{"epoch":"2026-09-20T06:15:58.355712Z","epoch_age_seconds":109869,"freshness":"FRESH","line1":"1 66516U 25265A   26263.26109208  .00010809  00000+0  40161-3 0  9993","line2":"2 66516  43.0013 258.8458 0001186 264.8712  95.2004 15.27592024 46875","mean_motion":15.27592024,"eccentricity":0.0001186,"inclination_deg":43.0013,"raan_deg":258.8458,"arg_perigee_deg":264.8712,"mean_anomaly_deg":95.2004,"bstar":0.00040161,"rev_number":4687,"period_min":94.266006720129,"perigee_km":482.19935969328,"apogee_km":483.82682449513,"semimajor_km":6861.1500920942,"source":"CELESTRAK","updated_at":"2026-09-21T09:00:35.925201Z"}}}